Find Starlink 30249

NORAD ID: 57618 Int'l Des: 2023-119 Owner: SPXS Country: US Constellation: starlink operational
LEOCIRCULAR

現在のビュー

3D地球を読み込み中...

Starlink 30249について

説明を読み込み中...

次回通過

Passes for default location (London). Set your location on the main map for personalized predictions.

高度履歴

Loading altitude history...

軌道要素

1 57618U 23119S 26145.02329709 .00000471 00000-0 26630-4 0 9996
2 57618 43.0047 10.2323 0001454 249.5547 110.5148 15.27578408154768
Epoch: May 25, 2026 • Age: 22 hours

現在のステータス

高度 485.5 km
速度 7.63 km/s
衛星直下点 36.35°N, 96.06°W
打ち上げ日 Aug 11, 2023
運用期間 2.7 years
タイプ internet

技術仕様

分類 Payload
質量 730.00 kg
乾燥質量 700.00 kg
総質量 730.00 kg
長さ 0.30 m
直径 4.10 m
スパン 29.00 m
形状 Box + pan
製造者 SPXS
バスタイプ Starlink V2M
フェーズステータス In Orbit
所有者/国 SPXS/US

Most Searched